Temperature
6 6 6 7 7 7 7 7 7 7 7 7 7 7 7 7 6 6 6 6 6 6 6 6 6 5 5 5 5 5 5 5 5 4 4 4 4 4 3 3 3 3 3
6 6 6 6 6 6 6 6 6 6 6 6 6 6 6 6 6 6 6 6 6 6 6 5 5 5 5 5 5 4 4 4 4 4 4 4 3 3 3 3 3 2 2
6 6 6 6 6 6 5 6 6 6 6 6 5 6 6 6 6 5 5 5 5 5 5 5 5 5 4 4 4 4 4 4 3 3 3 3 3 3 2 2 2 2 2
5 5 5 5 5 5 5 5 5 5 5 5 5 5 5 5 5 5 5 5 5 5 5 5 4 4 4 4 4 4 3 3 3 3 3 2 2 2 2 2 2 2 2
5 5 5 5 5 5 5 5 5 5 5 5 5 5 5 5 5 5 5 4 4 4 4 4 4 4 4 3 3 3 3 3 2 2 2 2 2 1 1 1 1 1 1
4 4 4 4 4 4 4 4 4 4 4 4 4 4 4 4 4 4 4 4 4 4 4 3 3 3 3 3 3 3 2 2 2 2 2 1 1 1 1 0 0 -0 -0
4 4 4 4 4 4 4 4 4 4 4 4 4 4 4 4 4 4 3 3 3 3 3 3 3 3 3 2 2 2 2 2 1 1 1 1 1 1 0 -0 -1 -1 -1
3 3 3 3 3 3 4 4 3 3 4 4 3 3 3 3 3 3 3 3 3 3 2 2 2 2 2 2 2 2 1 1 1 1 1 0 0 -0 -1 -1 -2 -2 -2
3 3 3 3 3 3 3 3 3 3 3 3 3 3 3 3 3 2 2 2 2 2 2 2 2 2 1 1 1 1 1 1 0 0 -0 -0 -1 -1 -1 -2 -2 -2 -3
3 3 3 3 2 2 2 2 2 2 2 2 2 2 2 2 2 2 2 2 2 1 1 1 1 1 1 1 0 0 0 0 -0 -0 -1 -1 -1 -1 -2 -2 -2 -3 -3
2 2 2 2 2 2 2 2 2 2 2 2 1 1 1 1 1 1 1 1 1 1 1 1 1 0 0 0 -0 -0 -0 -0 -1 -1 -1 -1 -2 -2 -2 -2 -3 -3 -4
2 2 2 1 1 1 1 1 1 1 1 1 1 1 1 1 1 1 0 0 0 0 0 0 -0 -0 -0 -0 -1 -1 -1 -1 -2 -2 -2 -2 -2 -3 -3 -3 -3 -4 -4
1 1 1 1 1 1 1 0 0 0 0 0 0 0 0 0 -0 -0 -0 -0 -0 -0 -1 -1 -1 -1 -1 -1 -1 -2 -2 -2 -2 -3 -3 -3 -3 -3 -4 -4 -4 -4 -4
1 0 0 0 0 0 0 -0 -0 -0 -0 -0 -1 -1 -1 -1 -1 -1 -1 -1 -1 -1 -1 -1 -1 -2 -2 -2 -2 -2 -2 -3 -3 -3 -3 -4 -4 -4 -4 -5 -5 -5 -5
-0 -0 -0 -0 -0 -0 -0 -1 -1 -1 -1 -1 -1 -1 -1 -1 -1 -1 -1 -1 -1 -1 -2 -2 -2 -2 -2 -2 -3 -3 -3 -3 -4 -4 -4 -4 -4 -5 -5 -5 -5 -6 -6
-1 -1 -1 -1 -1 -1 -1 -1 -1 -1 -2 -2 -2 -2 -2 -2 -2 -2 -2 -2 -2 -2 -2 -3 -3 -3 -3 -3 -3 -4 -4 -4 -4 -5 -5 -5 -5 -5 -6 -6 -6 -6 -6
-2 -2 -2 -2 -2 -2 -2 -2 -2 -2 -2 -2 -2 -2 -2 -2 -2 -2 -2 -3 -3 -3 -3 -3 -3 -3 -4 -4 -4 -4 -5 -5 -5 -5 -5 -5 -6 -6 -6 -6 -7 -7 -7
-2 -2 -2 -2 -2 -2 -3 -3 -3 -3 -2 -2 -2 -3 -3 -3 -3 -3 -3 -3 -3 -3 -4 -4 -4 -4 -4 -4 -5 -5 -5 -5 -5 -6 -6 -6 -6 -7 -7 -7 -7 -7 -7
-3 -3 -3 -3 -3 -3 -3 -3 -3 -3 -3 -3 -3 -3 -3 -3 -3 -3 -3 -4 -4 -4 -4 -4 -4 -5 -5 -5 -5 -5 -6 -6 -6 -6 -6 -6 -7 -7 -7 -7 -7 -7 -8
-3 -3 -4 -4 -3 -3 -4 -4 -4 -4 -4 -4 -4 -4 -4 -4 -4 -4 -4 -4 -4 -5 -5 -5 -5 -5 -5 -6 -6 -6 -6 -6 -6 -6 -7 -7 -7 -7 -7 -8 -8 -8 -8
-4 -4 -4 -4 -4 -4 -4 -4 -4 -5 -5 -4 -4 -5 -5 -5 -5 -5 -5 -5 -5 -5 -5 -5 -6 -6 -6 -6 -6 -6 -6 -6 -7 -7 -7 -7 -8 -8 -8 -8 -8 -8 -8
-5 -5 -5 -5 -5 -5 -5 -5 -5 -5 -5 -5 -5 -5 -5 -5 -5 -5 -5 -6 -6 -6 -6 -6 -6 -6 -6 -6 -7 -7 -7 -7 -7 -7 -7 -8 -8 -8 -8 -8 -8 -8 -8
-5 -5 -5 -5 -5 -5 -5 -6 -6 -6 -6 -6 -6 -6 -6 -6 -6 -6 -6 -6 -6 -6 -6 -6 -6 -7 -7 -7 -7 -7 -7 -7 -7 -8 -8 -8 -8 -8 -8 -8 -8 -9 -9
-6 -6 -6 -6 -6 -6 -6 -6 -6 -6 -7 -7 -7 -7 -7 -6 -6 -6 -7 -7 -7 -7 -7 -7 -7 -7 -7 -7 -7 -7 -7 -8 -8 -8 -8 -8 -8 -8 -8 -9 -9 -9 -9
-7 -7 -7 -7 -7 -7 -7 -7 -7 -7 -7 -7 -7 -7 -7 -7 -7 -7 -7 -7 -7 -7 -7 -7 -7 -7 -7 -8 -8 -8 -8 -8 -8 -8 -8 -9 -9 -9 -9 -9 -9 -9 -9
-7 -7 -7 -7 -7 -7 -7 -7 -7 -7 -7 -7 -7 -7 -7 -7 -7 -7 -7 -7 -7 -7 -7 -7 -7 -8 -8 -8 -8 -8 -8 -8 -8 -8 -9 -9 -9 -9 -9 -9 -9 -9 -9
Wind_Speed
3 3 3 4 4 4 4 5 5 5 5 6 6 6 6 6 6 6 5 6 6 5 5 5 5 4 4 4 4 3 3 3 4 3 2 1 2 2 3 4 5 6 7
3 3 3 3 3 3 4 4 4 5 5 5 6 6 6 6 6 7 7 6 7 6 6 6 6 5 5 4 4 4 4 4 4 4 2 2 3 3 3 3 5 6 7
2 3 2 2 3 3 4 3 4 4 4 5 5 6 6 6 7 7 7 6 6 7 7 7 7 7 6 5 5 4 4 3 3 4 3 2 2 2 2 2 3 4 6
1 2 2 2 2 3 3 3 3 4 4 5 5 5 5 5 6 6 6 6 6 6 6 6 7 8 8 7 6 5 4 4 4 3 3 3 3 2 1 2 3 3 3
0 1 1 1 1 1 2 2 2 3 4 4 4 4 4 4 5 6 6 6 6 5 5 5 6 8 10 8 6 6 6 5 4 4 4 3 3 2 3 2 3 3 4
0 1 1 1 0 1 1 2 2 2 3 3 3 4 4 4 6 9 7 6 6 6 6 5 5 6 8 10 10 9 9 7 6 5 4 5 5 4 3 3 3 2 3
0 1 1 1 1 1 1 1 2 3 2 3 3 4 4 5 7 8 9 6 5 6 6 5 4 5 6 5 7 8 9 10 10 7 6 7 6 5 4 4 4 4 5
1 1 1 1 1 1 0 1 2 2 2 3 3 4 3 4 6 7 8 5 5 5 5 6 6 5 5 6 5 5 5 6 7 6 7 7 6 5 6 5 5 4 4
1 1 1 1 1 1 1 1 1 1 2 2 3 3 3 4 6 6 6 4 4 4 5 5 6 6 8 8 6 5 5 5 6 8 9 9 9 8 6 2 2 3 5
2 2 2 1 1 2 2 1 1 1 1 1 1 2 3 3 5 6 6 3 4 3 3 4 7 8 9 9 6 6 7 6 4 4 5 6 6 6 7 5 4 4 4
2 2 2 1 2 1 1 1 0 0 1 1 1 1 1 2 4 5 6 3 4 4 4 4 5 8 9 9 8 6 8 6 4 4 4 3 3 3 4 5 5 5 5
1 1 1 1 1 1 0 0 0 1 1 1 1 1 1 2 2 4 5 5 5 4 4 4 5 8 8 8 7 7 8 6 3 3 3 4 4 4 4 5 6 7 8
2 2 2 1 1 1 1 1 1 1 1 1 1 1 2 2 2 4 5 6 6 4 3 5 6 7 7 6 7 7 6 3 3 3 4 5 4 4 3 3 4 5 6
2 2 2 1 1 1 0 1 1 2 2 2 2 2 2 2 2 2 3 3 4 3 3 4 6 6 4 4 4 4 4 4 4 5 4 4 3 2 3 3 3 3 3
2 2 2 2 1 1 1 1 2 2 3 3 3 3 3 4 5 6 4 3 3 3 2 1 1 2 2 3 3 3 3 3 3 3 3 3 3 3 3 3 2 3 4
2 2 2 1 1 1 1 3 3 3 4 4 4 4 4 6 6 6 6 6 6 6 3 2 3 3 4 4 4 3 3 4 4 4 4 4 4 4 4 3 3 4 5
2 2 2 1 1 1 1 1 2 4 3 3 4 4 4 5 5 5 5 5 6 5 3 3 3 4 4 4 4 4 4 3 3 3 4 4 4 4 4 4 4 4 5
3 3 3 2 1 1 1 2 2 2 3 3 3 4 4 4 4 4 3 2 2 2 3 3 4 4 4 4 4 4 3 3 3 3 4 4 4 4 4 5 5 5 5
3 2 2 2 2 1 2 2 1 2 2 2 3 3 3 3 3 2 2 1 2 2 3 3 4 4 4 4 4 4 4 4 4 4 4 4 4 4 5 5 5 7 6
3 4 3 2 2 2 2 1 2 2 2 2 2 2 2 2 1 2 2 2 2 2 3 3 3 4 4 4 4 3 4 4 4 4 4 4 4 4 5 6 5 5 5
3 3 4 2 2 2 2 2 2 2 2 2 2 3 3 2 2 2 2 2 2 3 3 3 3 3 3 3 3 4 5 4 4 4 4 4 4 4 5 5 5 5 5
3 3 3 2 2 2 2 2 2 2 2 3 3 3 5 2 2 3 3 3 3 3 3 3 3 3 3 3 3 4 4 4 4 4 4 4 4 4 4 5 5 5 5
3 3 3 3 3 3 3 2 2 2 3 3 3 3 3 3 3 3 3 3 3 3 2 2 3 3 2 3 4 4 4 5 4 4 4 4 4 5 5 5 5 5 5
3 3 3 3 3 3 3 3 3 3 3 3 3 3 3 3 3 4 3 3 3 3 3 3 3 4 5 4 5 6 6 7 6 6 6 5 5 5 5 5 5 6 6
3 3 3 3 3 3 3 3 3 3 4 4 4 4 4 4 4 4 3 3 3 3 4 4 4 4 5 6 6 7 8 9 9 8 7 5 6 6 5 5 5 5 5
3 3 3 3 3 3 3 4 4 4 4 4 4 4 4 4 4 4 3 3 3 4 4 4 5 6 7 7 8 9 9 10 10 10 7 5 5 5 5 5 5 5 5
Wind_Direction
201 205 208 209 205 193 198 203 200 196 189 187 188 187 186 185 182 182 187 178 184 188 184 185 193 177 171 172 169 170 172 165 203 238 233 227 207 220 252 248 255 259 265
202 203 208 205 198 198 206 206 194 193 194 193 190 189 190 189 187 190 194 189 189 195 196 191 195 185 182 179 177 180 179 176 184 216 235 225 227 225 235 248 261 262 266
195 193 204 203 204 209 211 205 193 192 193 192 190 193 195 193 192 198 196 195 196 200 199 198 197 185 192 189 183 186 184 181 179 195 223 222 234 234 241 258 265 269 274
171 177 196 208 212 215 207 198 191 194 195 195 196 196 197 196 196 195 193 196 199 203 203 202 200 195 198 192 190 191 184 180 179 193 217 227 231 239 224 241 271 261 274
146 190 225 230 205 195 197 193 181 191 202 200 194 191 194 197 201 193 192 194 195 201 202 205 207 202 201 197 195 191 187 189 190 200 218 227 231 226 237 230 254 278 278
234 257 265 262 201 192 206 190 181 188 194 192 197 193 200 214 210 201 193 191 192 197 201 207 212 208 208 209 208 203 197 196 200 205 218 225 237 230 227 236 243 267 277
263 282 265 232 243 240 212 191 195 195 191 197 203 198 209 217 208 206 200 192 193 200 199 200 213 211 208 200 213 216 218 222 216 205 212 224 226 221 219 235 240 245 260
294 292 272 253 261 269 215 221 224 219 204 208 209 204 206 219 210 210 204 197 199 202 202 203 205 208 206 199 198 209 221 226 226 218 217 225 223 220 216 226 236 255 266
291 287 283 270 253 241 244 255 264 229 221 225 214 205 208 226 218 213 202 187 197 204 206 204 204 209 217 211 200 207 225 239 241 234 236 240 243 245 240 223 234 265 279
282 278 288 274 238 235 241 253 287 235 226 212 221 219 213 224 223 215 201 185 196 205 211 214 217 219 223 220 209 206 223 237 227 237 243 246 244 242 239 226 215 240 267
291 289 292 284 255 243 246 256 229 195 161 185 217 259 244 237 236 232 217 198 202 204 212 219 221 224 229 229 223 216 228 231 216 220 231 237 236 234 235 236 228 223 245
298 292 288 287 284 284 192 288 209 171 178 202 215 277 290 275 255 245 230 225 218 208 219 221 223 228 232 235 233 232 237 235 209 213 230 239 239 242 242 243 245 244 244
336 322 310 300 293 227 195 199 210 194 205 228 224 256 288 294 273 257 242 235 233 231 229 231 237 239 237 238 240 241 237 222 210 224 238 244 242 240 240 251 260 262 267
347 330 329 336 344 354 327 210 208 212 217 227 233 245 264 274 271 262 251 245 239 244 246 246 249 251 244 236 241 242 228 216 215 225 234 242 238 233 240 243 257 270 280
356 353 349 346 352 349 337 296 251 242 231 231 235 233 236 252 256 254 251 235 220 220 217 226 222 234 235 232 231 233 225 220 228 224 229 241 250 252 257 246 247 262 267
356 352 345 347 352 348 332 330 321 291 273 259 251 250 257 260 266 261 261 252 239 223 216 217 230 233 237 236 234 237 231 228 229 228 231 236 243 248 256 256 251 253 264
338 327 326 326 311 303 305 307 320 333 324 281 260 258 264 269 269 264 265 262 246 228 225 224 232 240 241 236 233 233 237 233 224 225 234 237 239 244 251 254 253 258 261
339 330 324 309 298 291 284 281 282 292 310 317 306 286 281 278 276 274 269 269 251 230 220 227 236 240 239 233 229 229 231 229 229 230 235 236 234 241 247 251 252 256 262
333 328 326 321 316 307 301 298 290 285 286 298 315 318 314 308 296 289 298 253 244 246 238 235 236 235 233 231 230 227 228 233 235 233 236 237 236 236 246 250 253 262 268
335 333 335 332 330 325 315 304 296 287 287 290 294 304 323 331 310 300 301 278 261 259 254 248 243 236 229 227 228 230 234 235 235 237 238 239 239 239 247 249 251 256 260
339 339 341 338 327 315 310 302 296 295 293 291 291 294 297 286 275 280 283 281 272 271 270 266 257 244 236 228 227 229 232 237 235 235 237 240 241 246 246 246 248 252 259
339 336 334 327 324 318 315 313 310 304 299 297 302 303 303 306 286 284 285 286 281 275 270 268 267 258 240 230 229 232 237 240 238 235 237 239 242 244 247 248 250 253 255
335 331 330 327 324 321 324 318 312 304 298 294 295 298 301 296 290 289 288 287 283 280 273 268 268 264 247 239 232 228 237 242 238 230 233 239 241 243 244 248 249 254 256
333 328 324 322 322 318 311 308 305 303 301 299 297 294 292 291 290 290 288 285 284 279 273 262 258 256 256 254 253 250 248 249 244 235 231 236 241 242 243 247 250 251 256
328 322 320 317 313 308 305 303 300 300 301 300 298 297 295 293 291 289 288 283 282 279 278 272 263 258 257 255 258 260 261 261 257 248 237 235 240 241 244 248 251 255 257
319 314 309 306 303 302 300 298 296 297 296 295 295 297 298 296 294 293 290 287 286 285 281 276 269 267 266 265 265 267 268 267 264 259 247 234 234 240 241 248 251 253 255
Height
1465 1466 1467 1468 1469 1469 1471 1472 1473 1474 1476 1477 1479 1480 1482 1484 1486 1487 1488 1490 1492 1493 1495 1496 1498 1499 1500 1501 1502 1503 1505 1506 1506 1507 1508 1509 1510 1510 1511 1510 1510 1509 1509
1463 1464 1465 1465 1466 1466 1467 1468 1469 1471 1472 1474 1475 1477 1478 1480 1481 1483 1485 1486 1488 1489 1491 1492 1494 1495 1496 1497 1498 1499 1500 1501 1502 1502 1503 1504 1505 1506 1506 1505 1505 1504 1504
1461 1461 1462 1462 1463 1464 1464 1465 1466 1467 1469 1470 1472 1473 1474 1476 1477 1479 1481 1482 1484 1485 1487 1488 1489 1491 1491 1493 1494 1495 1496 1497 1498 1498 1498 1499 1500 1501 1500 1500 1500 1499 1499
1459 1459 1459 1459 1460 1461 1462 1463 1463 1465 1466 1467 1468 1469 1471 1472 1474 1475 1477 1478 1480 1481 1482 1484 1485 1486 1487 1489 1490 1491 1492 1492 1493 1494 1494 1494 1495 1495 1494 1494 1493 1493 1493
1457 1457 1457 1457 1458 1458 1459 1460 1461 1462 1462 1464 1465 1466 1467 1468 1470 1471 1473 1474 1475 1476 1478 1479 1480 1481 1483 1484 1485 1486 1487 1488 1488 1489 1489 1489 1489 1489 1489 1488 1487 1486 1486
1455 1454 1455 1455 1455 1456 1456 1457 1457 1458 1459 1460 1461 1462 1463 1464 1466 1467 1468 1469 1470 1472 1473 1474 1475 1477 1478 1479 1480 1481 1483 1483 1483 1483 1483 1484 1484 1484 1484 1483 1482 1481 1479
1453 1453 1452 1453 1453 1453 1453 1454 1454 1455 1456 1456 1457 1458 1459 1460 1461 1463 1464 1465 1466 1467 1468 1469 1471 1472 1472 1473 1475 1476 1477 1477 1478 1479 1478 1478 1478 1479 1479 1478 1477 1475 1474
1451 1451 1450 1450 1450 1450 1451 1451 1451 1452 1452 1453 1454 1455 1456 1457 1457 1458 1460 1460 1461 1462 1463 1465 1466 1467 1468 1468 1469 1470 1471 1472 1472 1472 1473 1473 1473 1473 1473 1472 1471 1470 1469
1448 1448 1448 1448 1448 1448 1448 1448 1449 1449 1449 1450 1451 1451 1452 1453 1453 1454 1455 1456 1457 1458 1459 1460 1461 1462 1463 1464 1464 1464 1465 1466 1467 1467 1467 1467 1467 1467 1467 1467 1465 1464 1461
1446 1446 1446 1446 1445 1445 1446 1446 1446 1446 1447 1447 1447 1448 1449 1449 1450 1451 1451 1452 1452 1453 1455 1455 1456 1457 1458 1458 1459 1459 1459 1460 1461 1461 1461 1462 1462 1461 1461 1461 1460 1459 1457
1445 1444 1444 1443 1443 1443 1443 1444 1444 1444 1444 1444 1444 1445 1445 1446 1446 1447 1447 1448 1448 1449 1450 1451 1451 1452 1453 1453 1454 1453 1454 1455 1455 1455 1455 1455 1455 1455 1455 1455 1455 1454 1452
1443 1442 1441 1441 1441 1441 1441 1441 1441 1441 1441 1441 1441 1441 1442 1442 1443 1443 1443 1444 1445 1445 1445 1446 1447 1447 1448 1448 1448 1448 1449 1449 1449 1449 1449 1449 1449 1449 1449 1449 1448 1448 1446
1440 1440 1439 1439 1439 1438 1438 1438 1438 1438 1438 1438 1438 1438 1438 1439 1439 1439 1440 1440 1440 1441 1441 1441 1442 1442 1442 1443 1443 1443 1443 1443 1443 1443 1443 1443 1443 1443 1442 1442 1442 1441 1440
1438 1438 1437 1437 1436 1436 1436 1436 1435 1435 1435 1435 1435 1435 1435 1435 1436 1436 1436 1436 1436 1436 1436 1436 1437 1437 1437 1437 1437 1437 1437 1437 1437 1437 1437 1437 1437 1437 1436 1436 1435 1434 1433
1436 1435 1435 1434 1434 1433 1433 1433 1433 1433 1433 1433 1433 1433 1432 1432 1432 1432 1432 1432 1432 1432 1431 1431 1431 1432 1432 1431 1431 1431 1431 1431 1431 1431 1431 1431 1431 1431 1431 1430 1429 1428 1427
1434 1434 1433 1432 1432 1431 1431 1430 1430 1430 1430 1430 1430 1430 1429 1429 1429 1429 1428 1428 1428 1428 1427 1427 1427 1427 1427 1426 1426 1426 1426 1426 1426 1426 1426 1426 1426 1425 1425 1424 1424 1423 1421
1433 1432 1432 1431 1430 1429 1428 1428 1427 1427 1427 1426 1426 1426 1426 1426 1425 1425 1424 1423 1423 1423 1423 1422 1422 1422 1421 1421 1421 1421 1421 1421 1421 1420 1420 1420 1420 1420 1419 1419 1418 1417 1416
1431 1430 1430 1429 1428 1427 1426 1425 1425 1424 1423 1422 1423 1423 1422 1422 1421 1421 1420 1419 1418 1418 1418 1417 1417 1417 1417 1416 1416 1416 1416 1416 1416 1415 1415 1415 1415 1414 1414 1413 1412 1411 1410
1429 1428 1427 1426 1426 1425 1424 1423 1422 1421 1420 1419 1419 1419 1419 1418 1418 1417 1416 1415 1414 1414 1413 1413 1413 1412 1412 1411 1411 1411 1411 1410 1410 1410 1410 1409 1409 1409 1408 1407 1407 1406 1405
1427 1426 1425 1424 1423 1422 1421 1420 1419 1418 1417 1416 1416 1415 1415 1414 1413 1413 1412 1411 1411 1410 1409 1408 1408 1407 1407 1407 1406 1406 1406 1406 1405 1405 1404 1404 1404 1403 1402 1402 1401 1400 1399
1425 1423 1422 1421 1420 1419 1418 1418 1416 1415 1414 1413 1413 1412 1411 1411 1410 1409 1408 1407 1407 1406 1405 1404 1403 1403 1402 1402 1402 1401 1401 1400 1400 1400 1399 1399 1398 1398 1397 1397 1396 1395 1394
1423 1421 1420 1419 1418 1417 1416 1415 1414 1413 1411 1411 1410 1409 1408 1407 1406 1405 1404 1404 1403 1402 1401 1400 1399 1398 1398 1397 1397 1396 1396 1395 1395 1395 1394 1394 1393 1393 1392 1391 1391 1390 1389
1420 1419 1418 1416 1415 1414 1413 1412 1411 1410 1408 1407 1406 1405 1404 1403 1403 1402 1401 1400 1399 1398 1397 1396 1395 1394 1393 1393 1393 1392 1391 1390 1390 1390 1389 1389 1388 1388 1387 1386 1386 1385 1384
1418 1416 1415 1414 1413 1411 1410 1409 1408 1407 1405 1404 1403 1402 1401 1400 1399 1398 1397 1396 1395 1394 1393 1392 1391 1390 1389 1389 1388 1387 1386 1386 1385 1385 1384 1384 1383 1383 1382 1382 1381 1380 1379
1415 1414 1412 1411 1410 1408 1407 1406 1405 1403 1402 1401 1399 1398 1397 1396 1395 1394 1393 1392 1391 1389 1388 1387 1386 1386 1385 1384 1383 1382 1382 1381 1380 1380 1379 1379 1378 1378 1378 1377 1376 1375 1375
1412 1411 1409 1408 1407 1405 1404 1403 1401 1400 1399 1398 1396 1395 1393 1392 1391 1390 1389 1387 1386 1385 1384 1383 1382 1381 1380 1379 1378 1378 1377 1376 1376 1375 1375 1374 1374 1373 1373 1372 1371 1371 1370